Centralia, IL

3:02 PM CDT on June 26, 2017 (GMT -0500)
Centralia Municipal

Weather History for KENL - August, 2014

Change the Weather History Date:

Saturday, August 16, 2014

  Actual Average (KSLO) Record (KSLO)
Temperature  
Mean Temperature 72 °F -  
Max Temperature 78 °F 87 °F 103 °F (1988)
Min Temperature 68 °F 66 °F 44 °F (2004)
Cooling Degree Days 7    
Growing Degree Days 22 (Base 50)    
Moisture  
Dew Point 66 °F    
Average Humidity 84    
Maximum Humidity 92    
Minimum Humidity 73    
Precipitation  
Precipitation 0.07 in - - ()
Sea Level Pressure  
Sea Level Pressure 29.94 in    
Wind  
Wind Speed 6 mph (SSE)    
Max Wind Speed 12 mph    
Max Gust Speed -    
Visibility 10 miles    
Events Rain    
Averages and records for this station are not official NWS values.
T = Trace of Precipitation, MM = Missing Value Source: NWS Daily Summary

Daily Weather History Graph

Daily Weather History Graph

Search for Another Location

Airport or City:

Trip Planner

Search our weather history database for the weather conditions in past years. The results will help you decide how hot, cold, wet, or windy it might be!

Date:

Astronomy

Aug. 16, 2014 Rise Set
Actual Time 6:11 AM CDT 7:49 PM CDT
Civil Twilight 5:43 AM CDT 8:17 PM CDT
Nautical Twilight 5:09 AM CDT 8:51 PM CDT
Astronomical Twilight 4:33 AM CDT 9:27 PM CDT
Moon 11:38 PM CDT (8/16) 12:52 PM CDT (8/16)
Length of Visible Light 14h 33m
Length of Day
13h 37m
Waning Gibbous, 58% of the Moon is Illuminated
Aug 16
Waning Gibbous
Aug 17
Last Quarter
Aug 25
New
Sep 2
First Quarter
Sep 8
Full

Hourly Weather History & Observations

Time (CDT) Temp. Dew Point Humidity Pressure Visibility Wind Dir Wind Speed Gust Speed Precip Events Conditions
12:15 AM 70.7 °F 67.1 °F 88% 29.98 in 10.0 mi SE 4.6 mph - N/A Rain Light Rain
12:35 AM 70.9 °F 67.1 °F 88% 29.98 in 10.0 mi SSE 5.8 mph - N/A   Overcast
12:55 AM 70.9 °F 66.9 °F 87% 29.97 in 10.0 mi SE 3.5 mph - N/A   Overcast
1:15 AM 71.1 °F 66.7 °F 86% 29.97 in 10.0 mi South 5.8 mph - N/A   Mostly Cloudy
1:35 AM 70.9 °F 66.7 °F 87% 29.96 in 10.0 mi SSE 5.8 mph - N/A   Light Drizzle
1:55 AM 70.9 °F 66.4 °F 86% 29.95 in 10.0 mi SSE 5.8 mph - N/A   Scattered Clouds
2:15 AM 70.9 °F 66.4 °F 86% 29.95 in 10.0 mi SSE 5.8 mph - N/A   Scattered Clouds
2:35 AM 70.7 °F 66.2 °F 86% 29.94 in 10.0 mi South 4.6 mph - N/A   Mostly Cloudy
2:55 AM 70.3 °F 66.2 °F 87% 29.95 in 10.0 mi South 4.6 mph - N/A Rain Light Rain
3:15 AM 70.2 °F 65.8 °F 86% 29.95 in 10.0 mi SSW 4.6 mph - N/A   Scattered Clouds
3:35 AM 69.8 °F 65.8 °F 87% 29.95 in 10.0 mi South 5.8 mph - N/A   Clear
3:55 AM 69.8 °F 65.7 °F 87% 29.95 in 10.0 mi SSW 3.5 mph - N/A   Scattered Clouds
4:15 AM 70.7 °F 65.3 °F 83% 29.95 in 10.0 mi SSW 5.8 mph - N/A   Overcast
4:35 AM 70.3 °F 64.9 °F 83% 29.95 in 10.0 mi South 5.8 mph - N/A   Overcast
4:55 AM 70.0 °F 64.6 °F 83% 29.95 in 10.0 mi South 4.6 mph - N/A   Mostly Cloudy
5:15 AM 69.8 °F 64.6 °F 83% 29.95 in 10.0 mi SSW 4.6 mph - N/A   Overcast
5:35 AM 68.9 °F 64.4 °F 86% 29.95 in 10.0 mi SSW 4.6 mph - N/A   Scattered Clouds
5:55 AM 68.9 °F 64.4 °F 86% 29.95 in 10.0 mi SSW 4.6 mph - N/A   Scattered Clouds
6:15 AM 69.1 °F 64.4 °F 85% 29.95 in 10.0 mi South 4.6 mph - N/A   Scattered Clouds
6:35 AM 69.3 °F 64.0 °F 83% 29.96 in 10.0 mi South 4.6 mph - N/A   Mostly Cloudy
6:55 AM 69.8 °F 63.9 °F 81% 29.96 in 10.0 mi SSW 4.6 mph - N/A   Mostly Cloudy
7:15 AM 69.8 °F 64.0 °F 82% 29.97 in 10.0 mi South 4.6 mph - N/A   Scattered Clouds
7:35 AM 70.3 °F 63.9 °F 80% 29.98 in 10.0 mi SSW 3.5 mph - N/A   Scattered Clouds
7:55 AM 70.3 °F 64.2 °F 81% 29.98 in 10.0 mi SSW 3.5 mph - N/A   Scattered Clouds
8:15 AM 70.5 °F 64.2 °F 80% 29.99 in 10.0 mi SSW 5.8 mph - N/A   Scattered Clouds
8:35 AM 70.7 °F 64.6 °F 81% 29.99 in 10.0 mi SW 8.1 mph - N/A   Drizzle
8:55 AM 70.2 °F 65.7 °F 86% 29.99 in 10.0 mi SW 6.9 mph - N/A Rain Rain
9:15 AM 70.3 °F 66.2 °F 87% 29.99 in 7.0 mi SW 5.8 mph - N/A   Drizzle
9:35 AM 70.9 °F 65.7 °F 83% 29.98 in 10.0 mi SSW 6.9 mph - N/A   Light Drizzle
9:55 AM 72.0 °F 66.0 °F 81% 29.98 in 10.0 mi South 5.8 mph - N/A   Scattered Clouds
10:15 AM 72.9 °F 66.0 °F 79% 29.99 in 10.0 mi SW 5.8 mph - N/A Rain Light Rain
10:35 AM 71.6 °F 66.0 °F 82% 30.00 in 10.0 mi SW 6.9 mph - N/A Rain Rain
10:55 AM 70.3 °F 66.7 °F 88% 30.01 in 5.0 mi SW 9.2 mph - 0.01 in Rain Light Rain
11:15 AM 71.6 °F 68.0 °F 88% 30.00 in 7.0 mi SSW 6.9 mph - N/A   Light Drizzle
11:35 AM 70.9 °F 67.5 °F 89% 29.99 in 7.0 mi South 8.1 mph - N/A   Light Drizzle
12:15 PM 71.1 °F 67.5 °F 88% 29.98 in 7.0 mi SSE 4.6 mph - N/A Rain Light Rain
12:35 PM 71.1 °F 67.5 °F 88% 29.98 in 10.0 mi SE 5.8 mph - N/A Rain Light Rain
12:55 PM 72.0 °F 67.3 °F 85% 29.97 in 10.0 mi SSE 5.8 mph - N/A Rain Light Rain
1:15 PM 72.5 °F 67.5 °F 84% 29.96 in 10.0 mi SSE 8.1 mph - 0.01 in Rain Light Rain
1:35 PM 73.8 °F 68.0 °F 82% 29.96 in 10.0 mi South 9.2 mph - 0.01 in   Clear
1:55 PM 71.4 °F 66.7 °F 85% 29.94 in 10.0 mi South 11.5 mph - 0.01 in Rain Light Rain
2:15 PM 70.9 °F 65.1 °F 82% 29.94 in 10.0 mi SE 6.9 mph - N/A   Mostly Cloudy
2:35 PM 73.6 °F 65.7 °F 76% 29.94 in 10.0 mi ESE 4.6 mph - N/A   Mostly Cloudy
2:55 PM 73.0 °F 66.4 °F 80% 29.94 in 10.0 mi ESE 4.6 mph - N/A   Overcast
3:15 PM 74.3 °F 67.3 °F 79% 29.93 in 10.0 mi SE 6.9 mph - N/A   Overcast
3:35 PM 75.4 °F 67.3 °F 76% 29.93 in 10.0 mi SE 11.5 mph - N/A   Mostly Cloudy
3:55 PM 75.2 °F 66.7 °F 75% 29.93 in 10.0 mi SSE 8.1 mph - N/A   Mostly Cloudy
4:15 PM 76.3 °F 66.9 °F 73% 29.92 in 10.0 mi SE 10.4 mph - N/A   Scattered Clouds
4:35 PM 74.7 °F 67.1 °F 77% 29.92 in 10.0 mi SSE 9.2 mph - N/A   Mostly Cloudy
4:55 PM 75.4 °F 67.3 °F 76% 29.92 in 10.0 mi SE 8.1 mph - N/A   Mostly Cloudy
5:15 PM 75.6 °F 67.3 °F 75% 29.92 in 10.0 mi SE 9.2 mph - N/A   Overcast
5:35 PM 76.6 °F 67.3 °F 73% 29.92 in 10.0 mi SSE 8.1 mph - N/A   Overcast
5:55 PM 75.2 °F 67.5 °F 77% 29.92 in 10.0 mi SE 8.1 mph - N/A   Overcast
6:15 PM 74.8 °F 67.3 °F 77% 29.92 in 10.0 mi SE 6.9 mph - N/A   Overcast
6:35 PM 74.3 °F 67.3 °F 79% 29.91 in 10.0 mi SE 8.1 mph - N/A   Overcast
6:55 PM 74.1 °F 67.5 °F 80% 29.90 in 10.0 mi SE 6.9 mph - N/A   Mostly Cloudy
7:15 PM 73.4 °F 67.5 °F 82% 29.90 in 10.0 mi SE 6.9 mph - N/A   Mostly Cloudy
7:35 PM 72.5 °F 67.6 °F 85% 29.90 in 10.0 mi SE 8.1 mph - N/A   Mostly Cloudy
7:55 PM 72.5 °F 67.6 °F 85% 29.90 in 10.0 mi SE 8.1 mph - N/A   Overcast
8:15 PM 72.5 °F 67.6 °F 85% 29.90 in 10.0 mi SE 10.4 mph - N/A   Overcast
8:35 PM 71.6 °F 67.6 °F 87% 29.90 in 10.0 mi SE 8.1 mph - N/A Rain Light Rain
8:55 PM 71.6 °F 68.0 °F 88% 29.90 in 10.0 mi SE 8.1 mph - N/A   Mostly Cloudy
9:15 PM 71.6 °F 68.0 °F 88% 29.90 in 7.0 mi SE 8.1 mph - N/A   Scattered Clouds
9:35 PM 71.6 °F 67.6 °F 87% 29.90 in 10.0 mi SE 9.2 mph - N/A   Scattered Clouds
9:55 PM 71.6 °F 67.6 °F 87% 29.90 in 10.0 mi SE 8.1 mph - N/A   Mostly Cloudy
10:15 PM 71.6 °F 67.5 °F 87% 29.90 in 10.0 mi SE 8.1 mph - N/A   Scattered Clouds
10:35 PM 71.6 °F 67.3 °F 86% 29.89 in 10.0 mi SE 9.2 mph - N/A   Mostly Cloudy
10:55 PM 71.8 °F 67.1 °F 85% 29.90 in 10.0 mi SE 6.9 mph - N/A Rain Light Rain
11:15 PM 70.3 °F 67.5 °F 91% 29.89 in 10.0 mi SE 10.4 mph - 0.01 in Rain Light Rain
11:35 PM 70.3 °F 67.3 °F 90% 29.88 in 10.0 mi SE 9.2 mph - 0.01 in Rain Light Rain
11:55 PM 70.0 °F 67.5 °F 92% 29.87 in 7.0 mi SE 9.2 mph - 0.05 in Rain Rain